Simultaneous Nadir Overpasses (SNOs) Predictions

Prediction of SNOs between LANDSAT-8 and NPP Satellite Orbit:

Table of predicted SNOs for the next 14.0 days since TLE Epoch: 5/2/2014
Index Date (LANDSAT-8) Time (LANDSAT-8) Lat,Lon (LANDSAT-8) SZA (LANDSAT-8 ) Date (NPP) Time (NPP) Lat,Lon (NPP) SZA (NPP ) Distance(km) Time Diff (sec)
1 05/03/2014 10:34:11 70.77, 18.62 54.97 05/03/2014 10:32:59 70.80, 18.07 55.01 20.40 72
2 05/03/2014 11:23:44 -70.49,-174.16 125.32 05/03/2014 11:23:37 -70.52,-174.14 125.30 2.89 7
3 05/03/2014 12:13:11 70.39, -6.67 54.57 05/03/2014 12:14:21 70.38, -6.62 54.56 2.12 70
4 05/06/2014 02:50:40 70.55, 134.18 53.98 05/06/2014 02:49:54 70.56, 134.24 53.99 2.38 46
5 05/06/2014 03:40:09 -70.49, -58.28 126.09 05/06/2014 03:40:36 -70.48, -58.31 126.11 2.17 27
6 05/08/2014 18:17:29 -71.12, 83.29 126.19 05/08/2014 18:16:19 -71.17, 81.67 126.11 58.55 70
7 05/08/2014 19:07:05 70.53,-109.98 53.22 05/08/2014 19:06:53 70.53,-109.94 53.22 1.39 12
8 05/08/2014 19:56:34 -70.47, 57.57 126.85 05/08/2014 19:57:35 -70.45, 57.51 126.88 3.29 61
9 05/11/2014 10:34:01 -70.63,-161.58 127.38 05/11/2014 10:33:07 -70.63,-161.64 127.38 2.51 54
10 05/11/2014 11:23:28 70.53, 5.91 52.51 05/11/2014 11:23:51 70.50, 5.87 52.49 3.16 23
11 05/11/2014 12:13:12 -69.64, 172.29 128.36 05/11/2014 12:14:18 -69.63, 174.53 128.41 86.58 66
12 05/14/2014 02:00:44 71.32, 147.74 52.65 05/14/2014 01:59:36 71.32, 145.64 52.68 75.06 68
13 05/14/2014 02:50:26 -70.55, -45.81
